Weather History for KODX - May, 2014

Change the Weather History Date:

Saturday, May 3, 2014

  Actual Average Record
Temperature  
Mean Temperature 52 °F 55 °F  
Max Temperature 71 °F 67 °F 85 °F (2015)
Min Temperature 33 °F 42 °F 19 °F (2005)
Degree Days  
Heating Degree Days 13 11  
Month to date heating degree days 44 33  
Since 1 July heating degree days 6386  
Cooling Degree Days 0 0  
Month to date cooling degree days 0 0  
Year to date cooling degree days 1 2  
Growing Degree Days 2 (Base 50)    
Moisture  
Dew Point 38 °F    
Average Humidity 65    
Maximum Humidity 96    
Minimum Humidity 33    
Precipitation  
Precipitation 0.00 in 0.12 in 1.63 in (1988)
Month to date precipitation 0.00 0.36  
Year to date precipitation 1.71 5.21  
Sea Level Pressure  
Sea Level Pressure 29.92 in    
Wind  
Wind Speed 6 mph (ENE)    
Max Wind Speed 13 mph    
Max Gust Speed 17 mph    
Visibility 10 miles    
Events      
T = Trace of Precipitation, MM = Missing Value Source: NWS Daily Summary

Daily Weather History Graph

Daily Weather History Graph

Search for Another Location

Airport or City:

Trip Planner

Search our weather history database for the weather conditions in past years. The results will help you decide how hot, cold, wet, or windy it might be!

Date:

Astronomy

May. 03, 2014 Rise Set
Actual Time 6:29 AM CDT 8:36 PM CDT
Civil Twilight 5:59 AM CDT 9:06 PM CDT
Nautical Twilight 5:22 AM CDT 9:44 PM CDT
Astronomical Twilight 4:41 AM CDT 10:25 PM CDT
Moon 10:00 AM CDT (5/3) No Moon Set
Length of Visible Light 15h 07m
Length of Day
14h 06m
Waxing Crescent, 20% of the Moon is Illuminated
May 3
Waxing Crescent
May 6
First Quarter
May 14
Full
May 21
Last Quarter
May 28
New

Hourly Weather History & Observations

Time (CDT) Temp. Windchill Dew Point Humidity Pressure Visibility Wind Dir Wind Speed Gust Speed Precip Events Conditions
12:53 AM 43.0 °F - 35.1 °F 74% 29.91 in 10.0 mi Calm Calm - N/A   Clear
1:53 AM 42.1 °F 39.2 °F 34.0 °F 73% 29.91 in 10.0 mi NW 4.6 mph - N/A   Clear
2:53 AM 41.0 °F 38.0 °F 34.0 °F 76% 29.93 in 10.0 mi NW 4.6 mph - N/A   Clear
3:53 AM 37.9 °F 33.5 °F 33.1 °F 83% 29.94 in 10.0 mi North 5.8 mph - N/A   Clear
4:53 AM 37.4 °F 31.4 °F 33.8 °F 87% 29.93 in 10.0 mi NNW 8.1 mph - N/A   Clear
5:53 AM 35.1 °F 32.2 °F 32.0 °F 89% 29.95 in 10.0 mi West 3.5 mph - N/A   Clear
6:53 AM 34.0 °F 29.8 °F 32.0 °F 92% 29.96 in 10.0 mi NW 4.6 mph - N/A   Clear
7:53 AM 43.0 °F 39.5 °F 37.0 °F 80% 29.96 in 10.0 mi NNW 5.8 mph - N/A   Clear
8:53 AM 48.9 °F - 39.9 °F 71% 29.95 in 10.0 mi Calm Calm - N/A   Clear
9:53 AM 57.9 °F - 39.0 °F 49% 29.94 in 10.0 mi Variable 4.6 mph - N/A   Clear
10:53 AM 59.0 °F - 37.0 °F 44% 29.96 in 9.0 mi Calm Calm - N/A   Partly Cloudy
11:53 AM 63.0 °F - 37.9 °F 40% 29.95 in 10.0 mi NNE 4.6 mph - N/A   Clear
12:53 PM 64.0 °F - 37.9 °F 38% 29.95 in 10.0 mi Variable 4.6 mph - N/A   Clear
1:53 PM 68.0 °F - 41.0 °F 37% 29.92 in 10.0 mi NE 10.4 mph - N/A   Clear
2:53 PM 69.8 °F - 39.2 °F 33% 29.91 in 10.0 mi Variable 5.8 mph - N/A   Clear
3:53 PM 69.1 °F - 39.9 °F 35% 29.90 in 10.0 mi SE 8.1 mph - N/A   Clear
4:53 PM 70.0 °F - 41.0 °F 35% 29.88 in 10.0 mi SE 8.1 mph - N/A   Clear
5:53 PM 71.1 °F - 42.1 °F 35% 29.89 in 10.0 mi SSE 9.2 mph - N/A   Clear
6:53 PM 70.0 °F - 42.1 °F 36% 29.90 in 10.0 mi SE 8.1 mph - N/A   Clear
7:53 PM 68.0 °F - 42.1 °F 39% 29.88 in 10.0 mi ESE 6.9 mph - N/A   Clear
8:53 PM 62.1 °F - 43.0 °F 50% 29.88 in 10.0 mi ESE 6.9 mph - N/A   Clear
9:53 PM 60.1 °F - 42.1 °F 51% 29.86 in 10.0 mi SE 4.6 mph - N/A   Clear
10:53 PM 55.0 °F - 42.1 °F 62% 29.89 in 10.0 mi East 8.1 mph - N/A   Clear
11:53 PM 53.1 °F - 41.0 °F 64% 29.89 in 10.0 mi East 11.5 mph - N/A   Clear